www.pogodaiklimat.ru

АРХИВ ПОГОДЫ в Форт Смит

Время (UTC), дата Ветер
(напр.,м/с)
 
Видим.   Явления Облачность Т
(С)
Тd
(С)
f
(%)
Тe
(С)
Тes
(С)
Комфортность

P
(гПа)

Po
(гПа)
Тmin
(С)
Tmax
(С)
R
(мм)
SD
(см)
11:53 17.08 СВ  16 км    ясно  +25.0  +22.8  88  +33  +33  очень
душно 
1013.0  996.5         
12:53 17.08 В  16 км    ясно  +26.7  +22.8  79  +35  +37  очень
душно 
1012.5  996.1         
13:53 17.08 В  16 км    ясно  +30.0  +23.3  67  +40  +46  очень
душно 
1012.2  995.8         
14:53 17.08 ЮЗ  16 км    ясно  +32.8  +23.9  60  +45  +50  опасность
перегрева 
1012.9  996.5         
15:53 17.08 нст  16 км    2/2 1290 м  +32.8  +23.9  60  +45  +57  опасность
перегрева 
1012.7  996.5         
16:53 17.08 нст  16 км    5/5 1500 м  +34.4  +23.9  54  +46  +54  опасность
перегрева 
1011.9  995.5  +23.9  +35.0     
17:53 17.08 В  4
{7} 
16 км    5/5 1800 м  +34.4  +23.9  54  +46  +51  опасность
перегрева 
1010.8  994.5         
18:53 17.08 СВ  16 км    5/5 1800 м  +33.9  +24.4  58  +47  +49  опасность
перегрева 
1010.4  994.1         
19:53 17.08 СВ  16 км    2/0 2100 м
[средняя] 
+35.0  +24.4  54  +47  +50  опасность
перегрева 
1009.4  993.1         
20:53 17.08 В  16 км    ясно  +35.0  +25.0  56  +48  +52  опасность
перегрева 
1008.8  992.5         
21:53 17.08 СВ  16 км    2/0 2550 м
[средняя] 
+34.4  +24.4  56  +47  +49  опасность
перегрева 
1008.8  992.5         
22:53 17.08 Ю  16 км    ясно  +34.4  +21.1  46  +42  +44  опасность
перегрева 
1008.5  992.1  +33.3  +35.6     
23:53 17.08 Ю  16 км    ясно  +33.3  +21.1  49  +41  +41  опасность
перегрева 
1008.5  992.1         
00:53 18.08 Ю  16 км    ясно  +32.2  +21.1  52  +40  +40  очень
душно 
1008.9  992.5         
01:53 18.08 ЮВ  16 км    ясно  +30.6  +21.7  59  +39  +39  очень
душно 
1009.9  993.5         
02:53 18.08 ЮВ  16 км    ясно  +30.0  +22.8  65  +40  +40  очень
душно 
1010.4  994.1         
03:53 18.08 ЮВ  16 км    ясно  +29.4  +22.8  68  +39  +39  очень
душно 
1010.3  994.1         
04:53 18.08 ЮВ  16 км    ясно  +28.9  +22.8  70  +38  +38  очень
душно 
1010.2  993.8  +28.9  +34.4     
05:53 18.08 СВ  16 км    ясно  +27.8  +22.8  74  +37  +37  очень
душно 
1010.1  993.8         
06:53 18.08 В  16 км    ясно  +26.1  +23.3  85  +35  +35  очень
душно 
1009.8  993.5         
07:53 18.08 В  16 км    ясно  +26.7  +23.3  82  +36  +36  очень
душно 
1010.4  994.1         
08:53 18.08 СВ  16 км    ясно  +26.1  +23.3  85  +35  +35  очень
душно 
1010.2  993.8         
09:53 18.08 В  16 км    ясно  +26.1  +23.3  85  +35  +35  очень
душно 
1009.7  993.5         
10:53 18.08 СВ  16 км    ясно  +26.7  +23.9  85  +37  +37  очень
душно 
1010.5  994.1  +26.1  +29.4     
11:53 18.08 С  16 км    ясно  +27.2  +24.4  85  +38  +38  очень
душно 
1012.0  995.8         
12:53 18.08 В  16 км    ясно  +28.3  +25.0  82  +41  +42  опасность
перегрева 
1012.0  995.8         
13:53 18.08   16 км    5/5 840 м  +30.0  +25.0  75  +43  +47  опасность
перегрева 
1012.8  996.5         
14:53 18.08   16 км    5/5 840 м  +31.7  +25.0  68  +45  +52  опасность
перегрева 
1013.4  997.1         
15:53 18.08 Ю  16 км    8/0 2850 м
[средняя] 
+31.7  +25.0  68  +45  +50  опасность
перегрева 
1012.9  996.5         
16:53 18.08 З  16 км    8/2 1500 м
[средняя] 
+32.8  +25.0  64  +47  +54  опасность
перегрева 
1012.7  996.5  +26.7  +34.4     
17:01 18.08 С  16 км  гроза  5/0 2400 м
[средняя] 
+32.2  +25.0  66  +46  +57  опасность
перегрева 
  996.5         
17:37 18.08 С  11
{14} 
13 км  гроза со слабым дождем  10/10 1110 м  +25.0  +21.7  82  +32  +32  очень
душно 
           
17:42 18.08 С  8
{13} 
3 км  гроза с сильным дождем, дымка  10/10 750 м  +23.9  +22.8  94  +32  +32  очень
душно 
           
17:51 18.08 С  1 км  гроза с сильным дождем, дымка  10/10 960 м  +23.0  +23.0  100  +32  +32  очень
душно 
           
17:53 18.08 СВ  2 км  гроза с дождем, дымка  10/10 1020 м  +23.3  +22.8  97  +32  +32  очень
душно 
1014.3           
18:10 18.08 ЮВ  5 км  гроза со слабым дождем, дымка  8/8 1260 м
[средняя] 
+23.3  +23.3  100  +33  +35  очень
душно 
           
18:23 18.08 В  5
{9} 
13 км  гроза, слабый дождь  8/5 1470 м
[средняя] 
+23.3  +23.3  100  +33  +35  очень
душно 
  994.5         
18:43 18.08   16 км    2/2 1380 м  +24.4  +23.3  94  +33  +53  опасность
солнечного
удара 
  995.8         
18:53 18.08 СЗ  16 км    ясно  +25.6  +23.3  87  +34  +48  очень
душно 
1013.0  996.5         
19:53 18.08 нст  16 км    ясно  +26.7  +23.3  82  +36  +50  очень
душно 
1011.7  995.5      9.4   
20:53 18.08 Ю  16 км    ясно  +28.3  +23.9  77  +39  +50  очень
душно 
1010.6  994.1         
21:53 18.08 нст  16 км    ясно  +30.6  +23.9  67  +42  +49  опасность
перегрева 
1010.2  993.8         
22:53 18.08 В  16 км    ясно  +30.6  +23.3  65  +41  +44  опасность
перегрева 
1010.1  993.8  +23.3  +32.8  9.4   
23:53 18.08 В  16 км    ясно  +29.4  +22.8  68  +39  +40  очень
душно 
1010.3  993.8         
00:53 19.08 В  16 км    8/0 3600 м
[средняя] 
+27.2  +23.3  79  +37  +37  очень
душно 
1011.3  994.8         
01:53 19.08 В  16 км    8/0 3600 м
[средняя] 
+27.2  +23.3  79  +37  +37  очень
душно 
1012.6  996.1         
02:53 19.08 В  16 км    2/0 3600 м
[средняя] 
+26.7  +23.9  85  +37  +37  очень
душно 
1013.3  996.8         
03:53 19.08 В  16 км    ясно  +25.6  +23.9  90  +35  +35  очень
душно 
1013.4  997.1         

 

Местоположение метеостанции Fort Smith Regional Airport: широта 35.3336 долгота -94.3650 высота над уровнем моря 142 м.

В архиве по умолчанию представлена погода в Форт Смит за последние 1-2 суток. Обновление информации о фактической погоде в базе происходит ежечасно! Архивные данные за месяц целиком и за предыдущие месяцы Вы можете получить, выбрав интересующий диапазон дат из раскрывающегося списка и нажав кнопку "Ввод!".

Внимание! Архив погоды МЕТАР в базе сайта в настоящее время начинается c 1 января 2011 г. Нет смысла пытаться выбрать более раннюю дату.

Внимание! Время в таблицах - всемирное. Для получения местного времени необходимо прибавить поправку, которая в Форт Смит равна -6 ч.

Ветер - указаны скорость ветра в м/с и направление, откуда дует ветер: С - северный, СВ - северо-восточный, В - восточный, ЮВ - юго-восточный, Ю - южный, ЮЗ - юго-западный, З - западный, СЗ - северо-западный.
Видимость - горизонтальная дальность видимости в метрах или километрах. При видимости от 1 до 10 км при отсутствии осадков обычно наблюдается дымка, при ухудшении видимости до 1 км и менее - туман. В сухую погоду видимость может ухудшаться дымом, пылью или мглою.
Атмосферные явления - указаны явления, наблюдавшиеся в указанный момент времени.
Облачность - указаны через наклонную черту верхняя и нижняя облачность в баллах и высота нижней границы облаков в метрах. Внимание: облачность, как и прочие метеорологические величины в США измеряются автоматическими метеостанциями. Указанные значения в баллах носят условный характер и показывают процент времени, в течение которого, в среднем, лазерный луч высотомера отражался от облаков обратно.
T - Температура воздуха - температура, измеренная на высоте 2 м над землей.
Td - Температура точки росы - температура, при понижении до которой содержащийся в воздухе водяной пар достигнет насыщения.
f - Относительная влажность воздуха - влажноcть воздуха, измеренная на высоте 2 м над землей.
Te - Эффективная температура - температура, которую ощущает одетый по сезону человек в тени. Характеристика душности погоды. При расчете учитывается влияние влажности воздуха и скорости ветра на теплоощущения человека.
Tes - Эффективная температура на солнце - температура, которую ощущает человек, с поправкой на солнечный нагрев. Характеристика знойности погоды. Зависит от высоты солнца над горизонтом, облачности и скорости ветра. Ночью, в пасмурную погоду, а также при ветре 12 м/с и более поправка равна нулю.
P - Атмосферное давление - приведенное к уровню моря атмосферное давление.
Po - Атмосферное давление - измеренное на уровне метеостанции атмосферное давление.
Tmin - Минимальная температура - минимум температуры воздуха на высоте 2 м над землей.
Tmax - Максимальная температура - максимум температуры воздуха на высоте 2 м над землей.
R - Количество осадков - Количество выпавших осадков за 3 или 6 часов, мм.
SD - Снежный покров - Высота снежного покрова, см.